owner,sensor,date,latitude,longitude,vertical_datum,direction_of_sea_water_velocity,sea_water_speed,upward_sea_water_velocity,qcFlag 
TABS,ioos:station:TABS:X:1,2017-05-01T00:00:00Z,27.0660,-96.3383,2.0,331.5417048,46.96518391,-99999.0,'11111222,11111222,99999999' 
TABS,ioos:station:TABS:X:1,2017-05-01T00:30:00Z,27.0660,-96.3383,2.0,342.5207124,42.48161955,-99999.0,'11111222,11111222,99999999' 
TABS,ioos:station:TABS:X:1,2017-05-01T01:00:00Z,27.0660,-96.3383,2.0,348.0668034,44.15423989,-99999.0,'11111222,11111222,99999999' 
TABS,ioos:station:TABS:X:1,2017-05-01T01:30:00Z,27.0660,-96.3383,2.0,355.5708176,25.76695946,-99999.0,'11111222,11111222,99999999' 
TABS,ioos:station:TABS:X:1,2017-05-01T02:00:00Z,27.0660,-96.3383,2.0,357.773472,41.95167815,-99999.0,'11111222,11111222,99999999' 
TABS,ioos:station:TABS:X:1,2017-05-01T02:30:00Z,27.0660,-96.3383,2.0,6.612123604,43.07650984,-99999.0,'11111222,11111222,99999999' 
TABS,ioos:station:TABS:X:1,2017-05-01T03:00:00Z,27.0660,-96.3383,2.0,9.214262255,45.15260568,-99999.0,'11111222,11111222,99999999' 
TABS,ioos:station:TABS:X:1,2017-05-01T03:30:00Z,27.0660,-96.3383,2.0,17.04300137,47.11919566,-99999.0,'11111222,11111222,99999999' 
TABS,ioos:station:TABS:X:1,2017-05-01T04:00:00Z,27.0660,-96.3383,2.0,23.28908876,44.13608614,-99999.0,'11111222,11111222,99999999' 
TABS,ioos:station:TABS:X:1,2017-05-01T04:30:00Z,27.0660,-96.3383,2.0,32.86757625,41.92024093,-99999.0,'11111222,11111222,99999999' 
TABS,ioos:station:TABS:X:1,2017-05-01T05:00:00Z,27.0660,-96.3383,2.0,38.90817126,43.97582063,-99999.0,'11111222,11111222,99999999' 
TABS,ioos:station:TABS:X:1,2017-05-01T05:30:00Z,27.0660,-96.3383,2.0,46.71547774,43.46411853,-99999.0,'11111222,11111222,99999999' 
TABS,ioos:station:TABS:X:1,2017-05-01T06:00:00Z,27.0660,-96.3383,2.0,51.3680359,45.13734596,-99999.0,'11111222,11111222,99999999' 
TABS,ioos:station:TABS:X:1,2017-05-01T06:30:00Z,27.0660,-96.3383,2.0,57.7089336,44.41976362,-99999.0,'11111222,11111222,99999999' 
TABS,ioos:station:TABS:X:1,2017-05-01T07:00:00Z,27.0660,-96.3383,2.0,67.74587089,42.06316441,-99999.0,'11111222,11111222,99999999' 
TABS,ioos:station:TABS:X:1,2017-05-01T07:30:00Z,27.0660,-96.3383,2.0,69.58097064,42.10567301,-99999.0,'11111222,11111222,99999999' 
TABS,ioos:station:TABS:X:1,2017-05-01T08:00:00Z,27.0660,-96.3383,2.0,83.2110413,41.02767481,-99999.0,'11111222,11111222,99999999' 
TABS,ioos:station:TABS:X:1,2017-05-01T08:30:00Z,27.0660,-96.3383,2.0,87.71414694,43.37451441,-99999.0,'11111222,11111222,99999999' 
TABS,ioos:station:TABS:X:1,2017-05-01T09:00:00Z,27.0660,-96.3383,2.0,96.12725714,38.03729749,-99999.0,'11111222,11111222,99999999' 
TABS,ioos:station:TABS:X:1,2017-05-01T09:30:00Z,27.0660,-96.3383,2.0,102.3748482,37.14296703,-99999.0,'11111222,11111222,99999999' 
TABS,ioos:station:TABS:X:1,2017-05-01T10:00:00Z,27.0660,-96.3383,2.0,108.5855938,37.27389569,-99999.0,'11111222,11111222,99999999' 
TABS,ioos:station:TABS:X:1,2017-05-01T10:30:00Z,27.0660,-96.3383,2.0,111.8133388,35.52351897,-99999.0,'11111222,11111222,99999999' 
TABS,ioos:station:TABS:X:1,2017-05-01T11:00:00Z,27.0660,-96.3383,2.0,131.3570097,25.81914019,-99999.0,'11111222,11111222,99999999' 
TABS,ioos:station:TABS:X:1,2017-05-01T11:30:00Z,27.0660,-96.3383,2.0,127.261891,26.88862957,-99999.0,'11111222,11111222,99999999' 
TABS,ioos:station:TABS:X:1,2017-05-01T12:00:00Z,27.0660,-96.3383,2.0,137.6072817,30.46541646,-99999.0,'11111222,11111222,99999999' 
TABS,ioos:station:TABS:X:1,2017-05-01T12:30:00Z,27.0660,-96.3383,2.0,143.6880349,30.801461,-99999.0,'11111222,11111222,99999999' 
TABS,ioos:station:TABS:X:1,2017-05-01T13:00:00Z,27.0660,-96.3383,2.0,147.7316861,30.73708184,-99999.0,'11111222,11111222,99999999' 
TABS,ioos:station:TABS:X:1,2017-05-01T13:30:00Z,27.0660,-96.3383,2.0,151.9616368,25.57118104,-99999.0,'11111222,11111222,99999999' 
TABS,ioos:station:TABS:X:1,2017-05-01T14:00:00Z,27.0660,-96.3383,2.0,158.5310864,27.18625572,-99999.0,'11111222,11111222,99999999' 
TABS,ioos:station:TABS:X:1,2017-05-01T14:30:00Z,27.0660,-96.3383,2.0,168.7561322,23.74575752,-99999.0,'11111222,11111222,99999999' 
TABS,ioos:station:TABS:X:1,2017-05-01T15:00:00Z,27.0660,-96.3383,2.0,175.7909294,21.52805844,-99999.0,'11111222,11111222,99999999' 
TABS,ioos:station:TABS:X:1,2017-05-01T15:30:00Z,27.0660,-96.3383,2.0,183.2984827,20.85455346,-99999.0,'11111222,11111222,99999999' 
TABS,ioos:station:TABS:X:1,2017-05-01T16:00:00Z,27.0660,-96.3383,2.0,188.1606825,15.77979721,-99999.0,'11111222,11111222,99999999' 
TABS,ioos:station:TABS:X:1,2017-05-01T16:30:00Z,27.0660,-96.3383,2.0,200.872994,16.27833222,-99999.0,'11111222,11111222,99999999' 
TABS,ioos:station:TABS:X:1,2017-05-01T17:00:00Z,27.0660,-96.3383,2.0,206.936823,13.77446914,-99999.0,'11111222,11111222,99999999' 
TABS,ioos:station:TABS:X:1,2017-05-01T17:30:00Z,27.0660,-96.3383,2.0,214.0653157,15.65674934,-99999.0,'11111222,11111222,99999999' 
TABS,ioos:station:TABS:X:1,2017-05-01T18:00:00Z,27.0660,-96.3383,2.0,228.5760103,17.45710744,-99999.0,'11111222,11111222,99999999' 
TABS,ioos:station:TABS:X:1,2017-05-01T18:30:00Z,27.0660,-96.3383,2.0,248.1768416,19.90654164,-99999.0,'11111222,11111222,99999999' 
TABS,ioos:station:TABS:X:1,2017-05-01T19:00:00Z,27.0660,-96.3383,2.0,260.3930323,25.46712783,-99999.0,'11111222,11111222,99999999' 
TABS,ioos:station:TABS:X:1,2017-05-01T19:30:00Z,27.0660,-96.3383,2.0,267.6963094,27.12191181,-99999.0,'11111222,11111222,99999999' 
TABS,ioos:station:TABS:X:1,2017-05-01T20:00:00Z,27.0660,-96.3383,2.0,275.5664337,31.54874958,-99999.0,'11111222,11111222,99999999' 
TABS,ioos:station:TABS:X:1,2017-05-01T20:30:00Z,27.0660,-96.3383,2.0,283.3857149,33.30471588,-99999.0,'11111222,11111222,99999999' 
TABS,ioos:station:TABS:X:1,2017-05-01T21:00:00Z,27.0660,-96.3383,2.0,291.016825,33.20915687,-99999.0,'11111222,11111222,99999999' 
TABS,ioos:station:TABS:X:1,2017-05-01T21:30:00Z,27.0660,-96.3383,2.0,295.3812552,40.03416666,-99999.0,'11111222,11111222,99999999' 
TABS,ioos:station:TABS:X:1,2017-05-01T22:00:00Z,27.0660,-96.3383,2.0,297.4015393,38.30792346,-99999.0,'11111222,11111222,99999999' 
TABS,ioos:station:TABS:X:1,2017-05-01T22:30:00Z,27.0660,-96.3383,2.0,301.0579809,37.68171971,-99999.0,'11111222,11111222,99999999' 
TABS,ioos:station:TABS:X:1,2017-05-01T23:00:00Z,27.0660,-96.3383,2.0,302.4587954,37.93639018,-99999.0,'11111222,11111222,99999999' 
TABS,ioos:station:TABS:X:1,2017-05-01T23:30:00Z,27.0660,-96.3383,2.0,307.6021375,41.02134688,-99999.0,'11111222,11111222,99999999' 
TABS,ioos:station:TABS:X:1,2017-05-02T00:00:00Z,27.0660,-96.3383,2.0,310.6594658,40.82524832,-99999.0,'11111222,11111222,99999999' 
TABS,ioos:station:TABS:X:1,2017-05-02T00:30:00Z,27.0660,-96.3383,2.0,310.6696528,44.76037757,-99999.0,'11111222,11111222,99999999' 
TABS,ioos:station:TABS:X:1,2017-05-02T01:00:00Z,27.0660,-96.3383,2.0,320.2014382,43.75916475,-99999.0,'11111222,11111222,99999999' 
TABS,ioos:station:TABS:X:1,2017-05-02T01:30:00Z,27.0660,-96.3383,2.0,311.239579,32.34199746,-99999.0,'11111222,11111222,99999999' 
TABS,ioos:station:TABS:X:1,2017-05-02T02:00:00Z,27.0660,-96.3383,2.0,326.0156725,44.77876506,-99999.0,'11111222,11111222,99999999' 
TABS,ioos:station:TABS:X:1,2017-05-02T02:30:00Z,27.0660,-96.3383,2.0,332.8345402,44.79090309,-99999.0,'11111222,11111222,99999999' 
TABS,ioos:station:TABS:X:1,2017-05-02T03:00:00Z,27.0660,-96.3383,2.0,337.3091612,46.40157433,-99999.0,'11111222,11111222,99999999' 
TABS,ioos:station:TABS:X:1,2017-05-02T03:30:00Z,27.0660,-96.3383,2.0,348.7537885,44.24971073,-99999.0,'11111222,11111222,99999999' 
TABS,ioos:station:TABS:X:1,2017-05-02T04:00:00Z,27.0660,-96.3383,2.0,355.286405,43.92858409,-99999.0,'11111222,11111222,99999999' 
TABS,ioos:station:TABS:X:1,2017-05-02T04:30:00Z,27.0660,-96.3383,2.0,358.7923487,43.16959231,-99999.0,'11111222,11111222,99999999' 
TABS,ioos:station:TABS:X:1,2017-05-02T05:00:00Z,27.0660,-96.3383,2.0,7.465005414,41.41096473,-99999.0,'11111222,11111222,99999999' 
TABS,ioos:station:TABS:X:1,2017-05-02T05:30:00Z,27.0660,-96.3383,2.0,14.83990109,44.27680657,-99999.0,'11111222,11111222,99999999' 
TABS,ioos:station:TABS:X:1,2017-05-02T06:00:00Z,27.0660,-96.3383,2.0,18.12348792,40.69911547,-99999.0,'11111222,11111222,99999999' 
TABS,ioos:station:TABS:X:1,2017-05-02T06:30:00Z,27.0660,-96.3383,2.0,26.14423897,40.78250851,-99999.0,'11111222,11111222,99999999' 
TABS,ioos:station:TABS:X:1,2017-05-02T07:00:00Z,27.0660,-96.3383,2.0,33.83965209,40.40449975,-99999.0,'11111222,11111222,99999999' 
TABS,ioos:station:TABS:X:1,2017-05-02T07:30:00Z,27.0660,-96.3383,2.0,41.11357267,40.1641096,-99999.0,'11111222,11111222,99999999' 
TABS,ioos:station:TABS:X:1,2017-05-02T08:00:00Z,27.0660,-96.3383,2.0,49.34885722,39.81868531,-99999.0,'11111222,11111222,99999999' 
TABS,ioos:station:TABS:X:1,2017-05-02T08:30:00Z,27.0660,-96.3383,2.0,54.27518755,39.13381402,-99999.0,'11111222,11111222,99999999' 
TABS,ioos:station:TABS:X:1,2017-05-02T09:00:00Z,27.0660,-96.3383,2.0,63.50383451,37.23055869,-99999.0,'11111222,11111222,99999999' 
TABS,ioos:station:TABS:X:1,2017-05-02T09:30:00Z,27.0660,-96.3383,2.0,69.9336973,39.98739801,-99999.0,'11111222,11111222,99999999' 
TABS,ioos:station:TABS:X:1,2017-05-02T10:00:00Z,27.0660,-96.3383,2.0,71.78312762,38.22588913,-99999.0,'11111222,11111222,99999999' 
TABS,ioos:station:TABS:X:1,2017-05-02T10:30:00Z,27.0660,-96.3383,2.0,74.0610546,36.81537858,-99999.0,'11111222,11111222,99999999' 
TABS,ioos:station:TABS:X:1,2017-05-02T11:00:00Z,27.0660,-96.3383,2.0,82.37907878,30.23707989,-99999.0,'11111222,11111222,99999999' 
TABS,ioos:station:TABS:X:1,2017-05-02T11:30:00Z,27.0660,-96.3383,2.0,90.19998399,34.38020942,-99999.0,'11111222,11111222,99999999' 
TABS,ioos:station:TABS:X:1,2017-05-02T12:00:00Z,27.0660,-96.3383,2.0,97.21151989,36.96239305,-99999.0,'11111222,11111222,99999999' 
TABS,ioos:station:TABS:X:1,2017-05-02T12:30:00Z,27.0660,-96.3383,2.0,109.3701639,37.77843962,-99999.0,'11111222,11111222,99999999' 
TABS,ioos:station:TABS:X:1,2017-05-02T13:00:00Z,27.0660,-96.3383,2.0,115.096015,37.15777308,-99999.0,'11111222,11111222,99999999' 
TABS,ioos:station:TABS:X:1,2017-05-02T13:30:00Z,27.0660,-96.3383,2.0,123.7899447,38.15511106,-99999.0,'11111222,11111222,99999999' 
TABS,ioos:station:TABS:X:1,2017-05-02T14:00:00Z,27.0660,-96.3383,2.0,128.9500649,37.90698221,-99999.0,'11111222,11111222,99999999' 
TABS,ioos:station:TABS:X:1,2017-05-02T14:30:00Z,27.0660,-96.3383,2.0,138.0461842,36.85698984,-99999.0,'11111222,11111222,99999999' 
TABS,ioos:station:TABS:X:1,2017-05-02T15:00:00Z,27.0660,-96.3383,2.0,147.0035588,35.73363262,-99999.0,'11111222,11111222,99999999' 
TABS,ioos:station:TABS:X:1,2017-05-02T15:30:00Z,27.0660,-96.3383,2.0,149.2360577,32.43400993,-99999.0,'11111222,11111222,99999999' 
TABS,ioos:station:TABS:X:1,2017-05-02T16:00:00Z,27.0660,-96.3383,2.0,170.6424609,34.99567116,-99999.0,'11111222,11111222,99999999' 
TABS,ioos:station:TABS:X:1,2017-05-02T16:30:00Z,27.0660,-96.3383,2.0,184.0487763,34.55625124,-99999.0,'11111222,11111222,99999999' 
TABS,ioos:station:TABS:X:1,2017-05-02T17:00:00Z,27.0660,-96.3383,2.0,191.1131069,33.15166662,-99999.0,'11111222,11111222,99999999' 
TABS,ioos:station:TABS:X:1,2017-05-02T17:30:00Z,27.0660,-96.3383,2.0,197.7580065,33.73753103,-99999.0,'11111222,11111222,99999999' 
TABS,ioos:station:TABS:X:1,2017-05-02T18:00:00Z,27.0660,-96.3383,2.0,203.9329727,37.7891585,-99999.0,'11111222,11111222,99999999' 
TABS,ioos:station:TABS:X:1,2017-05-02T18:30:00Z,27.0660,-96.3383,2.0,207.5691126,35.97491626,-99999.0,'11111222,11111222,99999999' 
TABS,ioos:station:TABS:X:1,2017-05-02T19:00:00Z,27.0660,-96.3383,2.0,212.2316154,40.21769387,-99999.0,'11111222,11111222,99999999' 
TABS,ioos:station:TABS:X:1,2017-05-02T19:30:00Z,27.0660,-96.3383,2.0,221.3706191,36.41831682,-99999.0,'11111222,11111222,99999999' 
TABS,ioos:station:TABS:X:1,2017-05-02T20:00:00Z,27.0660,-96.3383,2.0,223.3177892,34.21042239,-99999.0,'11111222,11111222,99999999' 
TABS,ioos:station:TABS:X:1,2017-05-02T20:30:00Z,27.0660,-96.3383,2.0,228.9998607,36.49075499,-99999.0,'11111222,11111222,99999999' 
TABS,ioos:station:TABS:X:1,2017-05-02T21:00:00Z,27.0660,-96.3383,2.0,238.7463334,33.59528687,-99999.0,'11111222,11111222,99999999' 
TABS,ioos:station:TABS:X:1,2017-05-02T21:30:00Z,27.0660,-96.3383,2.0,242.5053137,34.7441218,-99999.0,'11111222,11111222,99999999' 
TABS,ioos:station:TABS:X:1,2017-05-02T22:00:00Z,27.0660,-96.3383,2.0,247.2840421,31.30850523,-99999.0,'11111222,11111222,99999999' 
TABS,ioos:station:TABS:X:1,2017-05-02T22:30:00Z,27.0660,-96.3383,2.0,260.5429897,32.98830096,-99999.0,'11111222,11111222,99999999' 
TABS,ioos:station:TABS:X:1,2017-05-02T23:00:00Z,27.0660,-96.3383,2.0,269.0405484,36.4451053,-99999.0,'11111222,11111222,99999999' 
TABS,ioos:station:TABS:X:1,2017-05-02T23:30:00Z,27.0660,-96.3383,2.0,275.7478828,38.64426736,-99999.0,'11111222,11111222,99999999' 
TABS,ioos:station:TABS:X:1,2017-05-03T00:00:00Z,27.0660,-96.3383,2.0,285.2122919,43.02760161,-99999.0,'11111222,11111222,99999999' 
TABS,ioos:station:TABS:X:1,2017-05-03T00:30:00Z,27.0660,-96.3383,2.0,290.7904083,41.55580585,-99999.0,'11111222,11111222,99999999' 
TABS,ioos:station:TABS:X:1,2017-05-03T01:00:00Z,27.0660,-96.3383,2.0,301.0463539,37.03515762,-99999.0,'11111222,11111222,99999999' 
TABS,ioos:station:TABS:X:1,2017-05-03T01:30:00Z,27.0660,-96.3383,2.0,306.0240069,34.12572197,-99999.0,'11111222,11111222,99999999' 
TABS,ioos:station:TABS:X:1,2017-05-03T02:00:00Z,27.0660,-96.3383,2.0,305.6338276,43.1000348,-99999.0,'11111222,11111222,99999999' 
TABS,ioos:station:TABS:X:1,2017-05-03T02:30:00Z,27.0660,-96.3383,2.0,310.0305866,43.42404173,-99999.0,'11111222,11111222,99999999' 
TABS,ioos:station:TABS:X:1,2017-05-03T03:00:00Z,27.0660,-96.3383,2.0,316.9692149,37.04598224,-99999.0,'11111222,11111222,99999999' 
TABS,ioos:station:TABS:X:1,2017-05-03T03:30:00Z,27.0660,-96.3383,2.0,321.7293001,37.05307814,-99999.0,'11111222,11111222,99999999' 
TABS,ioos:station:TABS:X:1,2017-05-03T04:00:00Z,27.0660,-96.3383,2.0,330.0346648,35.73715294,-99999.0,'11111222,11111222,99999999' 
TABS,ioos:station:TABS:X:1,2017-05-03T04:30:00Z,27.0660,-96.3383,2.0,335.104097,36.70049863,-99999.0,'11111222,11111222,99999999' 
TABS,ioos:station:TABS:X:1,2017-05-03T05:00:00Z,27.0660,-96.3383,2.0,342.8782191,34.91755003,-99999.0,'11111222,11111222,99999999' 
TABS,ioos:station:TABS:X:1,2017-05-03T05:30:00Z,27.0660,-96.3383,2.0,352.6312247,30.87500607,-99999.0,'11111222,11111222,99999999' 
TABS,ioos:station:TABS:X:1,2017-05-03T06:00:00Z,27.0660,-96.3383,2.0,353.8201844,31.21138414,-99999.0,'11111222,11111222,99999999' 
TABS,ioos:station:TABS:X:1,2017-05-03T06:30:00Z,27.0660,-96.3383,2.0,7.918536836,26.78538781,-99999.0,'11111222,11111222,99999999' 
TABS,ioos:station:TABS:X:1,2017-05-03T07:00:00Z,27.0660,-96.3383,2.0,17.22153877,29.11529667,-99999.0,'11111222,11111222,99999999' 
TABS,ioos:station:TABS:X:1,2017-05-03T07:30:00Z,27.0660,-96.3383,2.0,22.78987077,30.3601334,-99999.0,'11111222,11111222,99999999' 
TABS,ioos:station:TABS:X:1,2017-05-03T08:00:00Z,27.0660,-96.3383,2.0,36.69891289,30.80613738,-99999.0,'11111222,11111222,99999999' 
TABS,ioos:station:TABS:X:1,2017-05-03T08:30:00Z,27.0660,-96.3383,2.0,49.72808199,35.85919687,-99999.0,'11111222,11111222,99999999' 
TABS,ioos:station:TABS:X:1,2017-05-03T09:00:00Z,27.0660,-96.3383,2.0,61.33927222,38.1549525,-99999.0,'11111222,11111222,99999999' 
TABS,ioos:station:TABS:X:1,2017-05-03T09:30:00Z,27.0660,-96.3383,2.0,68.00746453,35.06133198,-99999.0,'11111222,11111222,99999999' 
TABS,ioos:station:TABS:X:1,2017-05-03T10:00:00Z,27.0660,-96.3383,2.0,75.90368774,36.99397924,-99999.0,'11111222,11111222,99999999' 
TABS,ioos:station:TABS:X:1,2017-05-03T10:30:00Z,27.0660,-96.3383,2.0,86.67984983,34.87854355,-99999.0,'11111222,11111222,99999999' 
TABS,ioos:station:TABS:X:1,2017-05-03T11:00:00Z,27.0660,-96.3383,2.0,89.80197436,34.72020737,-99999.0,'11111222,11111222,99999999' 
TABS,ioos:station:TABS:X:1,2017-05-03T11:30:00Z,27.0660,-96.3383,2.0,94.85581406,33.55041729,-99999.0,'11111222,11111222,99999999' 
TABS,ioos:station:TABS:X:1,2017-05-03T12:00:00Z,27.0660,-96.3383,2.0,108.8904269,35.79811448,-99999.0,'11111222,11111222,99999999' 
TABS,ioos:station:TABS:X:1,2017-05-03T12:30:00Z,27.0660,-96.3383,2.0,101.5573846,28.15077264,-99999.0,'11111222,11111222,99999999' 
TABS,ioos:station:TABS:X:1,2017-05-03T13:00:00Z,27.0660,-96.3383,2.0,115.8026711,34.62186881,-99999.0,'11111222,11111222,99999999' 
TABS,ioos:station:TABS:X:1,2017-05-03T13:30:00Z,27.0660,-96.3383,2.0,125.9947615,34.96607785,-99999.0,'11111222,11111222,99999999' 
TABS,ioos:station:TABS:X:1,2017-05-03T14:00:00Z,27.0660,-96.3383,2.0,126.991552,31.06207012,-99999.0,'11111222,11111222,99999999' 
TABS,ioos:station:TABS:X:1,2017-05-03T14:30:00Z,27.0660,-96.3383,2.0,127.3099794,28.37683739,-99999.0,'11111222,11111222,99999999' 
TABS,ioos:station:TABS:X:1,2017-05-03T15:00:00Z,27.0660,-96.3383,2.0,129.981484,26.67532943,-99999.0,'11111222,11111222,99999999' 
TABS,ioos:station:TABS:X:1,2017-05-03T15:30:00Z,27.0660,-96.3383,2.0,132.0058396,22.7433155,-99999.0,'11111222,11111222,99999999' 
TABS,ioos:station:TABS:X:1,2017-05-03T16:00:00Z,27.0660,-96.3383,2.0,133.7442445,19.68350833,-99999.0,'11111222,11111222,99999999' 
TABS,ioos:station:TABS:X:1,2017-05-03T16:30:00Z,27.0660,-96.3383,2.0,132.753134,15.51170526,-99999.0,'11111222,11111222,99999999' 
TABS,ioos:station:TABS:X:1,2017-05-03T17:00:00Z,27.0660,-96.3383,2.0,130.5726944,10.90075685,-99999.0,'11111222,11111222,99999999' 
TABS,ioos:station:TABS:X:1,2017-05-03T17:30:00Z,27.0660,-96.3383,2.0,126.3480567,12.73852817,-99999.0,'11111222,11111222,99999999' 
TABS,ioos:station:TABS:X:1,2017-05-03T18:00:00Z,27.0660,-96.3383,2.0,130.817681,14.6407411,-99999.0,'11111222,11111222,99999999' 
TABS,ioos:station:TABS:X:1,2017-05-03T18:30:00Z,27.0660,-96.3383,2.0,152.3893159,15.68639219,-99999.0,'11111222,11111222,99999999' 
TABS,ioos:station:TABS:X:1,2017-05-03T19:00:00Z,27.0660,-96.3383,2.0,145.8157329,18.01178503,-99999.0,'11111222,11111222,99999999' 
TABS,ioos:station:TABS:X:1,2017-05-03T19:30:00Z,27.0660,-96.3383,2.0,160.7716657,10.05068157,-99999.0,'11111222,11111222,99999999' 
TABS,ioos:station:TABS:X:1,2017-05-03T20:00:00Z,27.0660,-96.3383,2.0,159.338891,17.26008691,-99999.0,'11111222,11111222,99999999' 
TABS,ioos:station:TABS:X:1,2017-05-03T20:30:00Z,27.0660,-96.3383,2.0,150.043871,14.13881537,-99999.0,'11111222,11111222,99999999' 
TABS,ioos:station:TABS:X:1,2017-05-03T21:00:00Z,27.0660,-96.3383,2.0,149.2916459,12.68930652,-99999.0,'11111222,11111222,99999999' 
TABS,ioos:station:TABS:X:1,2017-05-03T21:30:00Z,27.0660,-96.3383,2.0,158.6576303,17.14580124,-99999.0,'11111222,11111222,99999999' 
TABS,ioos:station:TABS:X:1,2017-05-03T22:00:00Z,27.0660,-96.3383,2.0,170.9174024,14.38029555,-99999.0,'11111222,11111222,99999999' 
TABS,ioos:station:TABS:X:1,2017-05-03T22:30:00Z,27.0660,-96.3383,2.0,172.7698362,15.5738274,-99999.0,'11111222,11111222,99999999' 
TABS,ioos:station:TABS:X:1,2017-05-03T23:00:00Z,27.0660,-96.3383,2.0,181.7424113,20.05927716,-99999.0,'11111222,11111222,99999999' 
TABS,ioos:station:TABS:X:1,2017-05-03T23:30:00Z,27.0660,-96.3383,2.0,189.6575228,16.86907822,-99999.0,'11111222,11111222,99999999' 
TABS,ioos:station:TABS:X:1,2017-05-04T00:00:00Z,27.0660,-96.3383,2.0,198.2174119,24.18211116,-99999.0,'11111222,11111222,99999999' 
TABS,ioos:station:TABS:X:1,2017-05-04T00:30:00Z,27.0660,-96.3383,2.0,201.791174,21.33453773,-99999.0,'11111222,11111222,99999999' 
TABS,ioos:station:TABS:X:1,2017-05-04T01:00:00Z,27.0660,-96.3383,2.0,209.6019721,15.44609336,-99999.0,'11111222,11111222,99999999' 
TABS,ioos:station:TABS:X:1,2017-05-04T01:30:00Z,27.0660,-96.3383,2.0,196.8047712,10.89529256,-99999.0,'11111222,11111222,99999999' 
TABS,ioos:station:TABS:X:1,2017-05-04T02:00:00Z,27.0660,-96.3383,2.0,232.7582593,16.65635014,-99999.0,'11111222,11111222,99999999' 
TABS,ioos:station:TABS:X:1,2017-05-04T02:30:00Z,27.0660,-96.3383,2.0,235.3404183,13.11776277,-99999.0,'11111222,11111222,99999999' 
TABS,ioos:station:TABS:X:1,2017-05-04T03:00:00Z,27.0660,-96.3383,2.0,247.5027675,13.61618522,-99999.0,'11111222,11111222,99999999' 
TABS,ioos:station:TABS:X:1,2017-05-04T03:30:00Z,27.0660,-96.3383,2.0,268.0730882,11.00622097,-99999.0,'11111222,11111222,99999999' 
TABS,ioos:station:TABS:X:1,2017-05-04T04:00:00Z,27.0660,-96.3383,2.0,291.6364462,14.15747153,-99999.0,'11111222,11111222,99999999' 
TABS,ioos:station:TABS:X:1,2017-05-04T04:30:00Z,27.0660,-96.3383,2.0,306.9748037,12.05402008,-99999.0,'11111222,11111222,99999999' 
TABS,ioos:station:TABS:X:1,2017-05-04T05:00:00Z,27.0660,-96.3383,2.0,319.463636,11.53962304,-99999.0,'11111222,11111222,99999999' 
TABS,ioos:station:TABS:X:1,2017-05-04T05:30:00Z,27.0660,-96.3383,2.0,319.1328202,13.54094531,-99999.0,'11111222,11111222,99999999' 
TABS,ioos:station:TABS:X:1,2017-05-04T06:00:00Z,27.0660,-96.3383,2.0,301.8600133,18.75566314,-99999.0,'11111222,11111222,99999999' 
TABS,ioos:station:TABS:X:1,2017-05-04T06:30:00Z,27.0660,-96.3383,2.0,232.5666108,15.46474701,-99999.0,'11111222,11111222,99999999' 
TABS,ioos:station:TABS:X:1,2017-05-04T07:00:00Z,27.0660,-96.3383,2.0,199.3779296,20.55442775,-99999.0,'11111222,11111222,99999999' 
TABS,ioos:station:TABS:X:1,2017-05-04T07:30:00Z,27.0660,-96.3383,2.0,215.2791653,22.69874446,-99999.0,'11111222,11111222,99999999' 
TABS,ioos:station:TABS:X:1,2017-05-04T08:00:00Z,27.0660,-96.3383,2.0,217.4781813,26.36148706,-99999.0,'11111222,11111222,99999999' 
TABS,ioos:station:TABS:X:1,2017-05-04T08:30:00Z,27.0660,-96.3383,2.0,217.9643433,26.90291062,-99999.0,'11111222,11111222,99999999' 
TABS,ioos:station:TABS:X:1,2017-05-04T09:00:00Z,27.0660,-96.3383,2.0,215.5450822,25.95693549,-99999.0,'11111222,11111222,99999999' 
TABS,ioos:station:TABS:X:1,2017-05-04T09:30:00Z,27.0660,-96.3383,2.0,210.4103583,24.33849831,-99999.0,'11111222,11111222,99999999' 
TABS,ioos:station:TABS:X:1,2017-05-04T10:00:00Z,27.0660,-96.3383,2.0,205.0873664,32.78271038,-99999.0,'11111222,11111222,99999999' 
TABS,ioos:station:TABS:X:1,2017-05-04T10:30:00Z,27.0660,-96.3383,2.0,197.7738271,30.4326223,-99999.0,'11111222,11111222,99999999' 
TABS,ioos:station:TABS:X:1,2017-05-04T11:00:00Z,27.0660,-96.3383,2.0,202.2874977,28.00200886,-99999.0,'11111222,11111222,99999999' 
TABS,ioos:station:TABS:X:1,2017-05-04T11:30:00Z,27.0660,-96.3383,2.0,203.2284497,34.96428177,-99999.0,'11111222,11111222,99999999' 
TABS,ioos:station:TABS:X:1,2017-05-04T12:00:00Z,27.0660,-96.3383,2.0,203.0983165,30.842615,-99999.0,'11111222,11111222,99999999' 
TABS,ioos:station:TABS:X:1,2017-05-04T12:30:00Z,27.0660,-96.3383,2.0,203.1733948,36.21169148,-99999.0,'11111222,11111222,99999999' 
TABS,ioos:station:TABS:X:1,2017-05-04T13:00:00Z,27.0660,-96.3383,2.0,210.7287005,36.83134535,-99999.0,'11111222,11111222,99999999' 
TABS,ioos:station:TABS:X:1,2017-05-04T13:30:00Z,27.0660,-96.3383,2.0,215.3426647,41.73081835,-99999.0,'11111222,11111222,99999999' 
TABS,ioos:station:TABS:X:1,2017-05-04T14:00:00Z,27.0660,-96.3383,2.0,212.2714059,45.15533745,-99999.0,'11111222,11111222,99999999' 
TABS,ioos:station:TABS:X:1,2017-05-04T14:30:00Z,27.0660,-96.3383,2.0,218.9528203,44.23523596,-99999.0,'11111222,11111222,99999999' 
TABS,ioos:station:TABS:X:1,2017-05-04T15:00:00Z,27.0660,-96.3383,2.0,208.7622022,45.72096237,-99999.0,'11111222,11111222,99999999' 
TABS,ioos:station:TABS:X:1,2017-05-04T15:30:00Z,27.0660,-96.3383,2.0,211.7005088,45.06326664,-99999.0,'11111222,11111222,99999999' 
TABS,ioos:station:TABS:X:1,2017-05-04T16:00:00Z,27.0660,-96.3383,2.0,213.8537848,41.66370243,-99999.0,'11111222,11111222,99999999' 
TABS,ioos:station:TABS:X:1,2017-05-04T16:30:00Z,27.0660,-96.3383,2.0,214.707849,44.64377224,-99999.0,'11111222,11111222,99999999' 
TABS,ioos:station:TABS:X:1,2017-05-04T17:00:00Z,27.0660,-96.3383,2.0,219.3088026,40.93108599,-99999.0,'11111222,11111222,99999999' 
TABS,ioos:station:TABS:X:1,2017-05-04T17:30:00Z,27.0660,-96.3383,2.0,217.2043866,41.75871286,-99999.0,'11111222,11111222,99999999' 
TABS,ioos:station:TABS:X:1,2017-05-04T18:00:00Z,27.0660,-96.3383,2.0,217.4190766,36.2876687,-99999.0,'11111222,11111222,99999999' 